KC5TIL-3 Weather Reports


Display with metric or nautical units.
time (UTC)temp
F
wind
direction
speed
MPH
gust
MPH
rain 1hr
in
rain 24hr
in
rain mn
in
humidity
%
barometer
mb
20260502194337 72 13 6.0 9.0 0.00 0.00 0.00 14 1018.8
20260502193339 74 39 4.0 8.0 0.00 0.00 0.00 16 1018.8
20260502192840 74 287 0.0 6.0 0.00 0.00 0.00 16 1018.8
20260502192338 73 356 3.0 9.0 0.00 0.00 0.00 13 1018.8
20260502191342 74 346 4.0 7.0 0.00 0.00 0.00 16 1018.8
20260502190342 72 2 5.0 8.0 0.00 0.00 0.00 14 1018.8
20260502185844 72 314 6.0 10.0 0.00 0.00 0.00 14 1018.8
20260502185338 72 63 4.0 8.0 0.00 0.00 0.00 16 1018.8
20260502184835 72 332 5.0 11.0 0.00 0.00 0.00 16 1018.8
20260502184337 72 122 7.0 11.0 0.00 0.00 0.00 16 1018.8
20260502183835 72 269 4.0 8.0 0.00 0.00 0.00 14 1018.8
20260502182835 72 290 5.0 7.0 0.00 0.00 0.00 13 1018.8
20260502181835 72 298 4.0 7.0 0.00 0.00 0.00 14 1019.8
20260502181333 72 116 4.0 6.0 0.00 0.00 0.00 14 1019.8
20260502164322 69 129 4.0 9.0 0.00 0.00 0.00 17 1019.8
20260502162801 69 295 4.0 7.0 0.00 0.00 0.00 17 1019.8
20260502161303 68 306 3.0 6.0 0.00 0.00 0.00 20 1019.8
20260502160802 67 333 4.0 8.0 0.00 0.00 0.00 20 1019.8
20260502151302 65 319 3.0 6.0 0.00 0.00 0.00 28 1019.8
20260502150756 65 291 3.0 6.0 0.00 0.00 0.00 33 1019.8
20260502130253 55 293 4.0 5.0 0.00 0.00 0.00 53 1018.8
20260502122754 54 292 3.0 5.0 0.00 0.00 0.00 59 1018.8
20260502122248 54 299 3.0 5.0 0.00 0.00 0.00 60 1018.8
20260502121745 54 283 0.0 4.0 0.00 0.00 0.00 61 1018.8
20260502121247 53 286 0.0 0.0 0.00 0.00 0.00 61 1018.8
20260502120248 53 286 0.0 0.0 0.00 0.00 0.00 61 1017.8
20260502115749 53 286 0.0 0.0 0.00 0.00 0.00 61 1017.8
20260502115248 53 286 0.0 0.0 0.00 0.00 0.00 61 1017.8
20260502114750 53 286 0.0 0.0 0.00 0.00 0.00 60 1017.8
20260502114252 53 286 0.0 4.0 0.00 0.00 0.00 60 1017.8
20260502113750 53 286 3.0 0.0 0.00 0.00 0.00 60 1017.8
20260502113252 52 286 0.0 0.0 0.00 0.00 0.00 60 1017.8
20260502112754 52 286 0.0 0.0 0.00 0.00 0.00 60 1017.8
20260502112253 52 286 0.0 0.0 0.00 0.00 0.00 59 1017.8
20260502111754 52 286 0.0 3.0 0.00 0.00 0.00 59 1017.8
20260502111256 52 286 0.0 0.0 0.00 0.00 0.00 59 1017.8
20260502110755 53 286 0.0 0.0 0.00 0.00 0.00 59 1017.8
20260502105800 52 286 0.0 4.0 0.00 0.00 0.00 58 1016.8
20260502105257 52 286 0.0 0.0 0.00 0.00 0.00 58 1016.8
20260502104759 52 286 0.0 4.0 0.00 0.00 0.00 57 1016.8
20260502104301 52 286 0.0 4.0 0.00 0.00 0.00 57 1016.8
20260502103800 52 286 0.0 4.0 0.00 0.00 0.00 55 1016.8
20260502103302 52 287 0.0 3.0 0.00 0.00 0.00 54 1016.8
20260502102803 53 287 0.0 0.0 0.00 0.00 0.00 52 1016.8
20260502102305 53 287 0.0 0.0 0.00 0.00 0.00 50 1016.8
20260502101804 53 287 0.0 5.0 0.00 0.00 0.00 49 1016.8
20260502100804 53 293 4.0 7.0 0.00 0.00 0.00 50 1016.8
20260502100306 54 287 5.0 6.0 0.00 0.00 0.00 50 1016.8
20260502091301 53 282 0.0 4.0 0.00 0.00 0.00 56 1016.8
20260502090800 53 283 0.0 5.0 0.00 0.00 0.00 56 1016.8
20260502090302 53 291 3.0 4.0 0.00 0.00 0.00 57 1016.8
20260502071257 56 275 3.0 4.0 0.00 0.00 0.00 50 1016.8
20260502070756 56 276 0.0 5.0 0.00 0.00 0.00 50 1016.8
20260502065758 56 275 0.0 0.0 0.00 0.00 0.00 49 1016.8
20260502065258 56 275 0.0 0.0 0.00 0.00 0.00 48 1016.8
20260502064301 56 275 0.0 0.0 0.00 0.00 0.00 48 1016.8
20260502063800 57 275 0.0 0.0 0.00 0.00 0.00 49 1016.8
20260502063301 57 275 0.0 0.0 0.00 0.00 0.00 49 1016.8
20260502062803 57 275 0.0 0.0 0.00 0.00 0.00 49 1016.8
20260502062306 57 275 0.0 0.0 0.00 0.00 0.00 48 1016.8
20260502061803 57 275 0.0 0.0 0.00 0.00 0.00 48 1016.8
20260502061305 57 275 0.0 0.0 0.00 0.00 0.00 48 1016.8
20260502060306 57 275 0.0 3.0 0.00 0.00 0.00 47 1016.8
20260502055808 57 275 0.0 0.0 0.00 0.00 0.00 47 1016.8
20260502055307 57 274 0.0 0.0 0.00 0.00 0.00 46 1016.8
20260502054808 57 274 0.0 0.0 0.00 0.00 0.00 46 1016.8
20260502054310 57 274 0.0 4.0 0.00 0.00 0.00 45 1016.8
20260502053809 58 274 0.0 5.0 0.00 0.00 0.00 45 1016.8
20260502053310 58 272 3.0 4.0 0.00 0.00 0.00 43 1017.8
20260502052808 58 269 0.0 5.0 0.00 0.00 0.00 42 1017.8
20260502052307 58 269 4.0 5.0 0.00 0.00 0.00 41 1017.8
20260502051808 58 268 4.0 5.0 0.00 0.00 0.00 40 1016.8
20260502051310 58 263 4.0 0.0 0.00 0.00 0.00 39 1016.8
20260502050810 58 117 0.0 0.0 0.00 0.00 0.00 39 1016.8
20260502050311 58 117 0.0 0.0 0.00 0.00 0.00 38 1016.8
20260502045812 59 117 0.0 0.0 0.00 0.00 0.00 37 1016.8
20260502044813 59 117 0.0 0.0 0.00 0.00 0.00 36 1016.8
20260502044315 59 117 0.0 0.0 0.00 0.00 0.00 36 1016.8
20260502043814 59 117 0.0 0.0 0.00 0.00 0.00 35 1016.8
20260502043315 59 117 0.0 0.0 0.00 0.00 0.00 36 1016.8
20260502042818 59 117 0.0 0.0 0.00 0.00 0.00 36 1016.8
20260502042316 60 117 0.0 0.0 0.00 0.00 0.00 36 1016.8
20260502041817 59 117 0.0 0.0 0.00 0.00 0.00 35 1016.8
20260502041319 60 117 0.0 0.0 0.00 0.00 0.00 35 1016.8
20260502040320 60 117 0.0 4.0 0.00 0.00 0.00 34 1016.8
20260502035822 60 117 0.0 5.0 0.00 0.00 0.00 34 1016.8
20260502034822 60 117 0.0 0.0 0.00 0.00 0.00 34 1016.8
20260502033823 60 117 0.0 0.0 0.00 0.00 0.00 34 1016.8
20260502032827 60 117 0.0 4.0 0.00 0.00 0.00 34 1016.8
20260502032325 60 117 0.0 5.0 0.00 0.00 0.00 34 1016.8
20260502031827 60 117 4.0 6.0 0.00 0.00 0.00 34 1016.8
20260502031329 60 117 4.0 7.0 0.00 0.00 0.00 34 1016.8
20260502030827 60 117 5.0 7.0 0.00 0.00 0.00 34 1016.8
20260502025831 60 121 5.0 5.0 0.00 0.00 0.00 32 1016.8
20260502025329 60 117 3.0 7.0 0.00 0.00 0.00 32 1016.8
20260502024832 60 116 4.0 7.0 0.00 0.00 0.00 31 1015.8
20260502024333 60 120 5.0 7.0 0.00 0.00 0.00 31 1015.8
20260502023904 60 123 5.0 8.0 0.00 0.00 0.00 31 1015.8
20260502023832 60 123 5.0 8.0 0.00 0.00 0.00 31 1015.8
20260502023324 60 113 5.0 6.0 0.00 0.00 0.00 31 1015.8
20260502022827 60 116 4.0 7.0 0.00 0.00 0.00 31 1015.8
20260502022325 60 116 5.0 8.0 0.00 0.00 0.00 31 1015.8
20260502021827 60 113 6.0 7.0 0.00 0.00 0.00 31 1015.8
20260502021329 60 111 4.0 8.0 0.00 0.00 0.00 31 1015.8
20260502020827 60 112 6.0 8.0 0.00 0.00 0.00 30 1015.8
20260502020329 61 129 6.0 9.0 0.00 0.00 0.00 30 1015.8
20260502015831 61 115 7.0 8.0 0.00 0.00 0.00 30 1015.8
20260502015329 61 110 4.0 7.0 0.00 0.00 0.00 30 1015.8
20260502014831 61 116 5.0 5.0 0.00 0.00 0.00 30 1014.8
20260502014334 61 112 4.0 5.0 0.00 0.00 0.00 32 1014.8
20260502013831 61 108 6.0 7.0 0.00 0.00 0.00 31 1014.8
20260502013329 61 115 5.0 8.0 0.00 0.00 0.00 31 1014.8
20260502012831 61 107 7.0 9.0 0.00 0.00 0.00 31 1014.8
20260502012329 61 118 5.0 9.0 0.00 0.00 0.00 30 1014.8
20260502011831 61 113 7.0 6.0 0.00 0.00 0.00 29 1014.8
20260502011332 62 126 5.0 6.0 0.00 0.00 0.00 28 1014.8
20260502010832 62 123 5.0 6.0 0.00 0.00 0.00 26 1014.8
20260502010333 62 124 5.0 6.0 0.00 0.00 0.00 26 1014.8
20260502005836 62 115 7.0 7.0 0.00 0.00 0.00 26 1014.8
20260502005333 62 141 3.0 6.0 0.00 0.00 0.00 26 1014.8
20260502004835 62 115 6.0 8.0 0.00 0.00 0.00 26 1013.8
20260502004338 62 110 7.0 8.0 0.00 0.00 0.00 26 1013.8
20260502003831 62 128 4.0 7.0 0.00 0.00 0.00 27 1013.8
20260502003333 62 120 4.0 6.0 0.00 0.00 0.00 27 1013.8
20260502002835 62 111 3.0 7.0 0.00 0.00 0.00 27 1013.8
20260502002329 62 101 5.0 7.0 0.00 0.00 0.00 27 1013.8
20260502001831 62 142 4.0 7.0 0.00 0.00 0.00 27 1013.8
20260502001333 62 112 3.0 7.0 0.00 0.00 0.00 26 1013.8
20260502000822 63 120 4.0 7.0 0.00 0.00 0.00 26 1013.8
20260502000325 63 102 3.0 7.0 0.00 0.00 0.00 27 1013.8
20260501235826 62 154 4.0 8.0 0.00 0.00 0.00 26 1013.8
20260501235324 62 73 5.0 7.0 0.00 0.00 0.00 26 1013.8
20260501234821 62 120 4.0 7.0 0.00 0.00 0.00 27 1013.8
20260501233822 63 150 6.0 7.0 0.00 0.00 0.00 26 1013.8
20260501233319 63 136 4.0 6.0 0.00 0.00 0.00 26 1013.8
20260501232821 63 84 3.0 6.0 0.00 0.00 0.00 26 1013.8
20260501232320 63 290 3.0 8.0 0.00 0.00 0.00 26 1013.8
20260501231822 63 208 4.0 8.0 0.00 0.00 0.00 26 1012.8
20260501230315 63 186 3.0 9.0 0.00 0.00 0.00 26 1012.8
20260501225813 63 32 4.0 7.0 0.00 0.00 0.00 26 1012.8
20260501225311 63 246 4.0 9.0 0.00 0.00 0.00 26 1012.8
20260501224813 63 119 4.0 7.0 0.00 0.00 0.00 26 1012.8
20260501224314 63 52 5.0 10.0 0.00 0.00 0.00 26 1012.8
20260501223813 63 319 4.0 8.0 0.00 0.00 0.00 26 1012.8
20260501223310 63 32 4.0 9.0 0.00 0.00 0.00 26 1012.8
20260501222813 63 267 5.0 7.0 0.00 0.00 0.00 26 1012.8
20260501222311 63 39 4.0 9.0 0.00 0.00 0.00 27 1012.8
20260501221311 63 80 5.0 11.0 0.00 0.00 0.00 26 1012.8
20260501220804 63 55 5.0 11.0 0.00 0.00 0.00 26 1012.8
20260501220307 63 22 7.0 8.0 0.00 0.00 0.00 25 1012.8
20260501215804 63 317 4.0 9.0 0.00 0.00 0.00 25 1012.8
20260501215305 64 247 7.0 7.0 0.00 0.00 0.00 24 1012.8
20260501214803 64 351 4.0 11.0 0.00 0.00 0.00 24 1012.8
20260501214305 63 332 6.0 11.0 0.00 0.00 0.00 24 1012.8
20260501213804 63 45 9.0 9.0 0.00 0.00 0.00 24 1012.8
20260501212804 63 26 8.0 10.0 0.00 0.00 0.00 24 1012.8
20260501212305 63 68 6.0 14.0 0.00 0.00 0.00 23 1012.8
20260501211804 64 9 10.0 10.0 0.00 0.00 0.00 23 1012.8
20260501210804 64 259 4.0 8.0 0.00 0.00 0.00 24 1012.8
20260501210306 63 29 5.0 8.0 0.00 0.00 0.00 24 1013.8
20260501205808 63 337 5.0 9.0 0.00 0.00 0.00 24 1013.8
20260501205306 63 325 5.0 8.0 0.00 0.00 0.00 24 1013.8
20260501204804 63 292 4.0 8.0 0.00 0.00 0.00 24 1013.8
20260501204305 63 52 4.0 8.0 0.00 0.00 0.00 24 1013.8
20260501203804 63 312 5.0 8.0 0.00 0.00 0.00 24 1013.8
20260501203301 63 304 5.0 7.0 0.00 0.00 0.00 24 1013.8
20260501202804 63 175 0.0 9.0 0.00 0.00 0.00 24 1013.8
20260501202305 63 87 4.0 11.0 0.00 0.00 0.00 24 1013.8
20260501201804 63 120 7.0 10.0 0.00 0.00 0.00 24 1014.8
20260501201305 63 89 5.0 7.0 0.00 0.00 0.00 24 1014.8
20260501200759 63 313 4.0 9.0 0.00 0.00 0.00 24 1014.8
20260501200344 63 227 6.0 10.0 0.00 0.00 0.00 24 1014.8
20260501200302 63 227 6.0 10.0 0.00 0.00 0.00 24 1014.8
20260501195803 63 241 5.0 12.0 0.00 0.00 0.00 23 1014.8
20260501195257 63 77 5.0 12.0 0.00 0.00 0.00 23 1014.8